Location: Lowman
(44.0835°N, 115.6207°W)
Time: 13:50:22
(UTC+00:00)

Tiangong - Pass Details

Date: 07 December 2022
Orbit: 383 x 386 km, 41.5° (Epoch: 05 February)

Event Time Altitude Azimuth Distance (km) Brightness Sun altitude
Rises 01:22:25 0° 266° (W) 2,251 3.4 -13.6°
Reaches altitude 10° 01:24:31 10° 261° (W) 1,398 2.1 -13.9°
Maximum altitude 01:27:35 51° 184° (S) 486 -1.5 -14.4°
Enters shadow 01:29:12 24° 117° (ESE) 839 -0.8 -14.7°
